Theta_e
322 319 323 328 336 343 345 347 347 348 348 348 348 349 347 349 347 348 348 348 349 349 349 348 349 350 349 349 349 348 349 349 349 350 349 349 350 349 349 349 349 350 349 349 349 348 348 348 347 346 346 345 346 347 347 348 348 348 348 348 348 350 352 353 355 355 356 356 356 357 357 356 355 356 356 356 357 357 354 355 355 357 358 357 359
316 319 321 324 335 341 342 344 346 346 346 347 347 348 348 348 349 348 348 348 348 348 347 348 348 349 349 349 349 349 349 350 349 349 350 350 350 350 350 350 350 350 350 350 349 349 348 348 347 346 346 344 343 343 344 345 347 349 349 350 350 350 353 352 354 354 354 353 353 354 354 357 357 357 356 355 356 357 354 353 353 357 358 357 358
315 316 318 323 332 339 341 341 343 344 345 345 345 345 346 346 347 347 347 348 349 348 347 348 347 347 348 348 348 348 349 349 349 349 350 350 349 350 349 350 350 350 350 350 350 350 350 349 349 348 346 344 343 342 342 343 345 347 349 349 349 349 350 352 353 353 353 353 352 352 350 352 355 357 357 355 355 356 354 353 349 348 359 357 358
311 312 316 322 329 336 339 340 340 341 341 341 342 343 344 345 345 346 346 347 348 347 348 348 346 347 347 348 348 348 348 348 348 349 349 349 348 347 345 346 347 349 350 350 350 350 350 349 349 349 348 348 345 344 345 344 345 346 346 349 349 349 350 352 352 352 352 352 352 350 355 357 355 355 357 356 354 355 353 351 348 349 354 357 358
308 310 314 320 326 333 336 336 336 336 337 338 338 339 339 340 341 343 344 345 345 347 346 347 347 347 347 346 346 348 348 348 348 349 349 349 348 347 347 347 347 347 346 349 350 350 349 349 349 349 348 351 349 347 346 346 346 346 346 347 349 349 351 351 351 352 351 349 349 348 357 357 357 355 358 357 354 354 352 351 351 353 355 356 358
307 309 312 318 325 330 332 333 333 334 334 334 335 335 336 337 338 339 340 341 343 344 345 345 345 346 347 347 347 347 347 347 348 348 348 348 348 347 347 346 347 347 347 348 348 349 349 349 348 348 348 350 351 351 349 348 348 347 346 346 348 349 350 351 350 350 350 347 345 353 354 356 356 356 357 355 354 354 352 353 353 353 355 356 357
305 308 311 317 323 326 329 330 331 331 331 332 332 333 334 334 335 336 337 338 340 340 340 341 341 342 343 344 345 345 346 346 347 347 347 347 346 346 346 346 347 347 347 348 347 349 348 347 348 348 348 349 350 350 349 350 349 348 348 348 349 349 350 351 350 349 347 348 353 354 353 354 356 357 355 356 353 353 353 354 354 353 355 356 356
304 306 308 314 322 323 326 328 328 329 330 330 331 331 331 332 333 333 334 336 336 336 337 339 340 341 341 342 343 344 344 345 345 346 346 346 346 346 345 345 345 346 345 346 347 347 347 347 347 347 347 347 348 350 350 350 349 349 348 348 348 349 350 351 349 347 346 352 353 352 353 354 354 356 355 357 354 352 354 355 354 354 354 355 353
302 303 306 312 319 322 323 326 327 328 329 329 330 330 330 330 331 332 332 333 333 332 334 336 338 338 337 338 338 339 342 343 343 344 344 344 344 344 345 344 344 345 345 345 346 347 346 346 346 346 347 346 347 348 349 348 349 349 349 349 348 349 349 349 347 344 347 350 351 351 351 353 354 354 354 356 356 355 355 354 354 354 354 353 351
301 302 304 309 318 320 322 324 326 327 328 328 328 328 329 329 330 330 330 330 329 330 331 333 333 333 333 333 335 337 337 338 339 339 340 341 341 341 342 343 343 343 344 345 346 346 346 346 345 346 346 345 346 346 347 347 349 349 349 349 349 349 349 348 346 343 350 350 350 351 350 347 352 353 354 355 356 355 353 347 349 350 350 350 349
300 301 303 307 316 318 320 322 323 324 325 325 326 326 327 327 327 328 328 327 327 327 329 330 329 329 329 329 331 332 332 332 332 331 333 333 332 333 336 339 341 342 343 344 346 346 346 346 346 346 345 345 344 345 345 346 346 348 347 348 349 348 349 348 342 350 350 349 350 350 348 344 350 352 352 354 355 355 351 345 345 348 350 350 350
299 300 302 305 312 315 317 319 321 322 323 323 324 324 325 325 325 325 325 325 325 326 327 327 326 325 325 326 327 327 327 327 327 327 328 327 328 329 331 332 335 340 341 341 343 345 346 345 345 345 345 344 344 343 344 344 345 345 346 346 347 348 347 345 348 349 350 349 349 350 350 349 348 349 352 354 354 354 351 346 347 351 352 350 349
299 299 301 303 307 312 314 316 318 319 320 321 322 322 322 322 323 323 322 322 322 323 324 324 323 322 321 322 323 323 323 324 324 324 324 324 324 326 327 329 332 335 336 336 337 339 342 345 345 344 344 343 343 343 344 344 344 345 346 346 347 347 344 340 349 349 348 349 349 350 349 349 349 348 351 354 354 354 353 352 350 351 353 351 348
298 299 300 301 304 308 310 311 314 316 317 318 319 319 320 320 320 320 320 319 319 320 321 322 321 319 319 319 320 320 320 320 321 321 321 321 321 323 325 327 329 330 330 330 330 331 334 337 340 342 342 342 342 342 343 344 344 344 345 346 346 346 342 339 341 349 347 348 348 349 350 349 349 347 350 353 354 353 353 353 352 352 352 352 350
298 299 300 300 300 302 306 308 309 312 314 315 316 316 317 317 318 318 318 318 317 317 318 318 318 317 316 317 317 318 318 318 318 318 318 318 319 321 322 324 325 325 325 326 326 328 330 333 334 334 336 339 341 341 341 342 343 343 344 344 344 342 338 346 347 347 346 347 347 348 349 349 346 348 350 353 354 354 353 353 353 352 352 352 350
299 298 299 299 300 300 301 304 306 306 309 311 312 313 314 315 315 315 315 315 315 315 315 316 316 315 314 314 314 315 315 315 316 316 316 316 317 319 320 321 321 322 322 323 323 325 327 329 329 329 329 331 335 337 338 339 340 341 341 342 340 339 335 334 346 345 346 345 346 348 349 348 346 348 350 352 353 352 352 352 353 353 353 352 351
298 298 297 298 299 298 299 300 302 302 303 306 309 309 310 311 312 312 312 312 312 312 312 312 313 312 311 311 311 311 311 312 313 314 313 314 315 316 317 318 319 319 320 320 321 323 325 325 325 325 325 326 326 328 332 335 336 336 337 337 338 337 333 329 344 344 345 345 345 345 347 348 345 348 350 353 352 352 351 351 352 353 353 353 352
297 296 296 296 298 298 298 299 299 299 299 300 303 307 307 309 309 309 309 310 310 309 309 309 310 309 308 307 307 307 307 308 309 310 310 311 311 313 314 316 317 316 317 317 318 319 321 322 322 322 323 322 322 321 324 328 332 334 333 334 335 334 332 328 341 342 343 341 343 345 346 342 343 347 350 352 353 352 351 350 351 353 353 353 352
296 295 295 295 295 297 297 297 298 298 299 298 299 303 304 305 306 306 307 307 307 307 306 306 306 306 306 305 304 303 304 305 305 306 307 307 308 308 310 313 314 314 314 314 315 317 318 319 319 320 319 318 318 318 318 320 323 326 328 329 329 326 324 330 340 341 342 342 343 343 344 341 343 347 350 351 352 352 352 351 350 352 353 351 353
295 295 294 295 295 296 297 296 297 297 298 298 298 299 302 302 303 304 304 305 305 305 304 304 303 303 304 303 302 301 301 301 303 302 303 305 305 305 307 309 311 311 312 312 313 314 316 316 317 317 317 316 315 314 314 316 317 319 320 322 323 321 334 337 338 339 340 341 342 342 339 340 344 347 349 349 349 349 350 351 350 349 352 352 351
294 293 294 293 294 295 295 296 296 296 297 297 297 298 300 299 298 300 301 302 303 302 302 301 301 300 301 302 300 301 300 300 301 301 301 301 303 303 305 307 307 307 308 309 310 311 313 314 314 314 314 313 311 310 310 312 313 314 315 318 318 330 335 336 337 337 338 340 341 342 338 340 343 346 348 348 348 348 349 350 349 349 348 351 351
292 293 293 292 293 294 295 295 296 295 296 297 297 297 297 297 297 297 298 299 299 299 298 299 298 299 300 300 300 299 299 299 301 301 300 301 301 302 303 304 305 304 306 306 307 309 310 311 311 312 312 310 308 306 307 309 310 311 312 314 319 325 330 332 334 336 336 338 338 338 337 340 343 346 348 347 347 346 348 349 348 347 348 346 348
291 292 293 292 293 293 293 294 294 295 295 296 296 297 295 295 296 296 296 297 297 297 296 297 297 298 298 299 299 299 299 299 300 301 300 299 299 300 301 301 302 301 303 303 303 305 307 308 309 309 308 307 305 306 306 307 308 309 310 313 315 318 320 326 330 333 334 336 336 333 336 338 341 345 348 346 345 345 345 347 349 347 346 344 345
290 292 292 293 292 293 292 293 295 294 295 295 295 296 295 295 295 296 295 296 296 296 296 296 297 297 297 298 297 298 298 298 299 299 299 299 298 299 299 299 299 299 300 299 300 302 303 304 305 306 304 304 304 304 304 305 307 308 309 310 312 314 318 321 325 329 331 332 334 331 334 337 340 342 345 346 346 345 345 345 346 348 348 346 344
291 292 293 291 291 291 292 293 293 294 294 294 294 296 294 294 294 295 294 295 295 295 295 295 296 296 296 296 297 297 297 297 298 298 298 298 298 298 298 298 297 298 299 298 298 299 300 301 302 302 303 303 303 303 304 304 305 306 307 307 309 312 315 318 322 326 329 330 332 329 331 335 338 340 344 345 345 344 344 345 345 345 349 346 345
290 289 290 290 291 291 291 291 292 292 293 293 294 295 293 293 294 295 294 295 296 294 294 295 295 295 295 295 296 296 296 296 297 297 297 297 297 296 297 297 297 296 297 297 297 298 299 300 300 301 301 302 302 302 303 303 304 304 305 306 307 309 312 314 317 321 325 328 330 327 329 332 336 339 341 344 344 344 345 344 345 346 347 349 345
290 289 289 289 292 290 290 290 292 292 292 292 293 293 293 293 294 295 293 295 295 294 294 294 294 294 294 295 295 294 295 295 295 295 295 296 296 296 295 296 295 295 296 296 296 297 297 298 299 299 300 301 301 302 302 303 303 304 304 305 306 306 308 311 313 315 319 323 323 324 326 328 333 337 339 342 343 344 344 344 345 347 347 345 349
288 289 289 289 291 290 290 289 291 292 293 292 292 293 292 293 294 293 292 295 293 293 293 293 294 293 293 293 294 294 293 293 294 294 294 295 295 295 295 295 294 294 295 295 295 296 296 297 298 299 299 300 300 301 301 302 302 303 303 304 305 305 306 307 309 312 314 317 319 320 323 326 329 332 337 340 343 343 344 344 345 346 348 346 346
288 288 289 289 290 291 290 289 289 290 291 292 292 292 292 292 292 292 291 295 292 292 292 293 292 292 293 293 294 293 293 293 293 293 294 293 293 294 293 293 294 293 294 294 294 294 295 296 296 297 298 299 299 300 300 301 302 302 302 303 304 304 305 306 306 308 309 312 315 317 319 323 326 330 333 337 341 342 343 344 345 345 345 347 349
288 288 288 289 289 290 288 289 290 292 291 291 292 292 291 291 291 291 291 292 291 292 292 292 292 292 292 293 293 293 293 292 292 292 292 292 292 292 292 292 292 292 292 292 293 293 293 294 296 296 297 298 298 299 300 300 301 301 302 302 303 303 304 304 305 305 306 307 310 314 316 319 323 327 330 333 337 341 340 342 343 344 345 346 349
288 288 288 289 291 289 289 289 289 292 290 290 292 290 291 290 291 291 291 291 291 291 291 291 291 291 291 292 292 293 293 292 291 291 291 291 291 291 291 291 291 291 291 291 292 292 292 293 294 295 296 297 297 298 299 299 300 300 301 302 302 302 303 304 304 304 305 306 307 309 312 314 318 322 326 330 333 336 339 341 342 342 344 344 347
287 287 288 289 288 287 288 288 288 290 290 289 291 290 290 290 290 290 290 291 291 290 290 290 291 291 291 292 292 292 292 291 291 291 290 290 290 290 290 290 290 290 290 290 290 291 292 292 293 294 296 296 297 298 299 298 299 300 301 301 302 302 302 303 303 304 304 305 306 307 309 311 313 317 321 326 331 334 336 339 339 340 342 343 344
287 288 287 289 287 288 288 288 288 288 289 288 290 289 289 289 290 290 290 291 290 290 290 290 290 291 291 291 291 291 292 291 290 290 290 289 289 289 289 289 289 289 290 290 290 291 291 291 292 293 294 295 296 296 298 298 298 299 300 300 301 301 302 302 302 303 303 304 305 306 307 309 311 313 316 320 325 329 333 335 338 339 340 341 343
287 287 286 286 288 289 290 290 290 288 291 289 290 289 289 290 290 289 290 290 289 289 289 289 289 290 290 290 290 290 291 290 290 289 289 288 288 288 288 288 288 288 289 289 289 289 290 290 290 291 292 293 294 295 296 296 297 298 299 300 300 300 301 301 301 302 303 303 304 305 306 306 308 312 315 316 320 324 329 332 334 336 338 339 340
288 285 286 287 289 288 290 286 290 288 288 287 289 289 289 288 288 288 289 289 290 289 289 289 289 289 289 289 289 290 290 290 290 288 288 287 287 287 287 287 287 288 287 288 288 289 289 289 290 289 290 291 293 294 295 296 296 297 298 299 299 300 300 300 301 301 301 302 303 304 305 306 307 309 313 314 313 317 323 328 332 334 336 338 339
286 286 287 286 285 286 289 287 287 288 288 289 288 288 287 288 288 289 289 289 289 288 288 288 288 288 288 289 289 289 290 289 289 288 287 287 286 286 286 286 287 287 287 287 287 287 288 288 289 289 288 289 290 291 294 294 296 296 298 298 299 299 299 300 300 300 301 301 302 303 304 305 306 307 308 311 315 317 318 323 328 331 333 335 338
285 285 286 285 286 287 289 287 287 288 287 286 287 288 287 287 287 288 287 288 288 288 288 288 288 288 288 288 288 289 289 289 288 288 287 286 286 285 285 286 286 286 286 286 286 287 287 287 288 289 289 288 288 289 290 292 293 295 297 298 299 299 299 299 299 300 301 300 301 302 303 303 304 304 305 308 310 315 315 318 323 325 326 330 334
285 285 285 286 286 286 286 287 287 288 286 287 287 287 287 287 287 287 288 288 288 287 287 287 288 288 287 287 288 288 288 288 288 287 286 286 286 285 285 285 285 285 285 285 285 286 287 287 286 288 288 288 288 288 289 290 292 293 294 296 297 297 298 298 299 299 299 299 300 301 301 302 302 303 304 306 309 312 315 319 319 319 318 323 330
284 284 284 285 285 285 287 288 289 286 286 286 286 288 287 286 286 286 287 286 287 287 287 287 287 287 287 287 288 287 287 287 287 287 286 285 285 285 284 285 285 284 284 285 285 286 286 286 286 286 288 288 288 289 289 290 290 292 293 295 296 297 297 298 298 298 299 299 299 300 301 301 302 303 303 305 307 309 313 318 322 327 327 320 327
284 282 284 284 284 284 284 285 286 285 285 285 286 286 286 286 286 285 285 286 286 286 286 286 287 286 287 287 287 287 286 286 286 286 285 285 285 284 284 284 284 284 284 284 284 285 285 285 286 286 286 287 289 289 289 290 291 292 293 295 296 297 297 297 297 298 298 299 299 300 300 301 302 303 303 304 305 307 311 314 318 323 327 326 322
282 282 283 283 283 284 285 284 285 284 285 285 285 285 285 285 284 284 284 285 285 286 286 286 286 286 286 287 286 286 286 285 285 285 285 284 284 284 284 284 284 284 283 283 284 285 285 286 285 285 285 284 286 288 289 290 288 289 292 293 293 295 295 295 295 296 297 298 299 299 299 300 300 301 302 304 305 307 310 312 316 320 324 328 327
281 281 282 283 283 283 284 284 284 284 284 284 285 286 285 285 284 285 284 284 284 284 284 285 285 286 286 286 286 285 285 285 285 285 284 284 284 283 283 283 283 283 284 284 284 284 284 284 284 283 285 284 284 287 288 289 288 288 287 288 290 293 294 295 295 296 297 298 298 298 299 299 299 301 303 303 305 307 309 311 314 318 322 326 328
282 281 283 282 282 282 283 284 283 284 284 284 284 284 284 285 284 284 284 283 284 284 284 284 285 285 285 285 285 285 284 284 284 284 284 284 283 283 283 283 283 283 283 282 283 282 283 282 283 282 282 284 284 287 288 290 287 289 289 287 286 287 291 293 295 295 297 298 299 299 300 300 301 303 304 304 305 306 308 311 313 317 321 325 327
282 281 281 282 281 283 282 282 283 283 283 284 286 284 284 284 284 284 284 283 283 284 284 284 284 284 284 285 284 284 284 284 284 284 283 283 283 283 283 283 283 283 282 282 282 282 282 282 282 282 282 280 283 284 288 289 288 287 284 286 286 286 284 288 291 293 296 296 296 297 299 300 302 304 308 308 309 311 312 312 313 316 319 325 327
281 281 281 281 281 282 282 282 283 283 283 285 285 286 284 284 283 282 283 283 283 282 282 282 283 283 283 283 283 283 283 283 283 283 283 283 283 283 283 283 282 282 282 282 281 281 281 282 282 281 281 281 280 283 285 287 287 288 286 285 284 284 285 287 289 289 293 294 295 297 299 300 301 301 300 301 302 305 310 315 316 317 321 325 327
281 282 282 282 282 282 282 282 282 282 282 283 283 284 284 282 281 281 281 280 280 280 280 280 281 281 281 282 282 282 282 282 282 282 283 283 282 283 283 282 282 282 282 282 281 281 281 281 281 281 281 282 281 281 281 285 286 287 289 288 287 284 284 287 287 283 292 294 294 295 296 297 298 297 298 299 300 302 303 306 313 318 320 323 326
281 282 281 281 281 281 281 281 282 281 282 282 282 284 281 281 280 281 281 280 279 280 281 282 281 281 282 281 282 282 282 281 282 282 282 282 282 282 282 282 282 281 282 281 281 281 281 281 281 281 281 282 282 280 280 281 282 283 285 286 287 288 289 287 284 286 284 290 294 294 295 297 298 297 297 298 300 300 301 305 308 311 316 322 325
281 281 280 280 280 280 280 280 281 283 281 282 281 282 281 281 280 280 280 280 280 280 281 280 281 281 281 281 281 281 281 281 281 281 281 282 282 281 282 281 281 281 281 281 280 281 281 281 281 281 281 281 281 280 279 280 279 280 284 285 287 288 289 290 289 286 285 283 287 293 295 295 296 296 297 297 298 299 300 301 303 304 308 313 321
281 280 280 280 280 279 280 279 279 281 281 280 280 280 281 281 280 280 279 281 281 280 281 281 280 280 279 280 279 279 280 280 281 281 281 281 281 281 281 281 280 280 281 280 280 280 280 280 280 280 280 280 281 281 280 279 280 280 282 283 284 284 286 287 288 288 285 284 285 287 289 294 295 296 297 298 298 298 299 301 303 305 306 308 312
281 281 281 280 279 279 279 279 279 278 279 278 280 280 279 281 280 279 278 279 279 279 279 278 278 279 278 278 278 278 278 279 279 280 280 280 280 280 280 280 280 280 280 280 280 280 280 280 280 280 279 279 280 280 280 280 281 282 282 281 280 281 282 283 285 285 286 286 284 285 288 289 288 292 296 296 298 300 300 300 300 303 306 309 312
280 280 279 279 278 279 279 278 278 278 279 278 278 278 278 278 278 278 278 278 278 278 277 277 277 277 277 277 277 277 278 278 278 279 279 279 279 280 280 280 280 280 280 279 279 279 279 279 279 279 279 279 279 280 280 281 281 281 280 280 279 279 279 280 281 283 284 284 284 284 287 289 289 290 294 297 297 298 299 300 301 301 302 305 309
Wind_Speed
9 11 12 15 17 16 16 16 15 16 15 15 15 15 13 12 8 7 6 5 6 8 8 9 11 12 11 9 9 9 9 9 9 9 9 9 9 8 6 6 5 5 5 5 4 4 4 5 5 5 6 6 7 8 9 9 9 9 10 10 9 9 10 11 11 9 9 10 12 12 11 11 10 10 10 9 9 9 8 9 10 10 9 9 12
11 11 10 11 16 14 15 16 15 16 16 17 16 16 16 16 15 11 8 7 6 5 5 5 6 8 11 12 12 12 12 14 14 12 12 12 10 10 10 9 7 6 6 5 5 5 5 5 6 6 4 4 4 5 7 8 9 9 9 10 9 9 8 9 11 11 9 9 8 9 9 9 10 10 10 10 10 10 8 10 11 10 9 9 12
9 8 8 10 15 14 14 15 16 16 16 16 17 17 17 17 17 16 16 13 13 11 10 9 8 8 9 11 11 9 8 9 10 12 13 14 14 13 13 12 10 8 8 7 7 7 7 7 6 6 5 3 2 3 4 5 7 8 8 9 10 10 9 8 9 10 10 9 9 8 9 8 7 8 10 11 11 11 8 10 8 11 8 11 12
6 7 7 9 12 13 14 15 16 16 16 16 16 17 17 17 17 17 17 17 16 16 15 14 12 12 11 11 12 11 10 9 9 10 11 11 10 10 12 15 16 14 9 9 9 9 9 9 8 8 6 4 3 4 4 3 4 6 7 8 9 10 10 9 9 9 8 8 9 9 7 7 6 7 10 10 10 10 7 10 12 16 13 13 14
4 6 7 7 8 10 14 15 15 16 16 16 17 17 17 18 17 17 18 18 19 19 18 17 18 17 16 15 15 15 15 14 13 12 11 11 10 10 10 9 10 12 16 11 11 11 10 10 10 9 8 5 4 5 5 4 4 4 5 6 7 9 9 10 9 9 8 7 6 7 8 7 5 5 8 9 10 10 7 11 15 17 17 15 16
6 6 6 6 6 8 13 14 15 15 16 16 16 17 17 18 18 18 18 19 19 18 19 18 19 19 19 20 19 19 18 18 18 18 15 13 13 11 9 10 10 10 13 15 15 17 15 12 10 10 10 7 5 5 5 5 5 5 6 6 6 7 8 9 9 9 8 7 6 6 8 7 5 4 6 9 11 10 9 12 16 15 16 16 17
5 5 5 6 5 9 13 15 15 16 16 16 17 17 17 17 18 18 18 18 19 19 17 17 17 18 18 18 19 18 19 19 19 19 19 17 16 15 13 11 11 11 11 12 13 14 16 16 13 12 12 10 8 7 7 5 4 5 6 7 7 7 8 8 8 9 8 6 6 6 6 7 6 4 6 9 11 13 10 15 16 19 19 18 18
3 4 5 5 5 11 14 15 15 16 16 16 17 17 17 18 18 18 18 18 18 17 17 18 19 19 18 16 17 18 18 18 19 20 20 20 20 20 19 18 16 14 13 13 13 13 14 15 16 16 13 12 10 9 8 6 4 5 7 8 8 8 8 8 8 7 9 6 6 5 6 6 7 5 5 10 13 15 11 15 17 20 18 19 15
5 6 6 6 6 14 14 14 15 15 16 16 17 17 17 18 18 18 18 18 18 18 18 18 18 18 17 17 17 17 18 18 19 19 19 19 19 20 20 19 19 17 15 14 13 13 13 13 13 15 14 14 12 11 9 9 9 7 7 8 9 8 6 8 8 8 6 6 6 6 6 7 8 7 6 11 14 16 12 13 15 18 18 16 13
5 5 6 5 6 13 14 14 15 15 16 16 17 17 17 17 17 18 18 18 18 18 18 18 18 17 17 17 17 18 18 19 19 19 19 18 18 18 18 18 17 17 18 17 16 16 15 14 13 13 13 15 14 12 12 12 9 8 8 8 8 8 5 6 8 7 6 6 7 8 8 7 7 8 7 12 16 17 12 12 11 10 12 14 11
5 5 5 6 8 14 14 14 15 15 16 16 16 17 17 17 17 17 17 17 17 17 17 17 17 17 17 17 17 18 19 19 18 19 18 18 19 19 18 18 18 18 18 18 19 18 17 16 15 14 14 14 14 14 14 12 11 10 10 9 9 8 7 6 7 6 7 7 6 7 8 7 8 8 9 14 17 18 10 11 12 11 12 14 13
5 5 5 6 7 14 14 14 15 15 16 16 16 17 17 17 17 17 17 17 17 17 17 17 17 17 17 18 18 18 18 18 18 18 18 18 18 18 18 18 18 19 19 20 19 19 19 18 17 16 15 15 14 15 15 14 14 13 12 11 10 9 7 7 6 7 7 8 8 7 9 9 10 9 11 17 18 17 12 12 12 16 15 17 16
5 5 5 5 6 12 14 15 15 15 16 16 17 17 17 17 17 17 17 17 17 17 17 17 17 17 17 18 17 17 17 17 17 17 18 18 18 17 18 18 18 18 19 20 20 19 20 21 20 18 18 17 15 15 15 15 14 14 12 11 9 8 8 8 7 8 7 8 8 9 10 10 11 12 13 18 21 17 17 16 16 17 18 18 18
5 4 4 4 5 9 14 14 14 15 16 16 16 16 17 17 17 17 17 17 17 17 17 17 17 17 17 17 17 17 17 17 17 17 18 18 18 17 17 17 18 18 18 18 19 19 19 19 20 20 19 18 16 16 15 16 15 14 12 12 11 8 8 7 7 7 8 8 8 9 10 9 10 12 14 18 22 20 18 16 17 19 19 18 19
5 6 4 5 5 6 11 14 14 14 15 16 16 16 17 17 17 17 17 17 17 17 17 17 16 17 17 17 17 17 17 17 17 18 18 18 18 17 17 17 18 18 18 18 18 19 19 19 19 19 19 19 19 18 16 15 16 15 13 12 11 8 7 7 7 7 8 8 8 9 9 9 11 14 14 17 21 20 19 17 18 19 17 16 18
4 5 4 5 5 5 5 9 13 14 15 15 16 16 17 17 17 17 17 17 17 17 17 17 17 17 17 17 17 17 16 17 17 17 17 18 17 17 17 17 17 18 18 18 18 18 18 19 19 20 19 19 20 20 19 18 17 16 15 13 12 10 8 5 8 8 7 8 8 9 9 9 12 13 16 18 20 21 20 19 19 18 18 18 18
5 4 5 5 5 4 5 5 8 12 12 14 15 16 16 17 17 17 17 17 17 17 17 17 17 17 17 17 17 17 17 17 17 17 17 18 17 17 17 17 17 17 18 18 18 18 18 18 18 18 18 19 19 19 19 18 16 15 15 14 14 13 11 8 7 8 7 8 8 9 8 9 10 13 16 19 20 21 22 21 19 19 19 18 18
5 4 5 4 4 4 4 4 5 6 6 8 11 15 15 16 16 16 17 17 17 17 17 17 16 16 16 16 15 15 15 16 16 16 17 17 17 17 18 18 17 17 18 18 18 18 17 17 17 18 18 18 18 19 19 19 19 17 16 15 14 13 13 12 8 9 9 7 8 7 8 10 10 13 15 18 19 20 21 21 18 19 20 18 17
4 4 3 4 4 4 4 4 5 5 6 5 5 8 15 14 15 15 15 16 16 16 16 15 15 14 14 14 13 12 12 13 14 15 15 16 16 15 18 18 18 18 18 18 17 17 17 17 17 17 17 17 17 18 18 18 18 18 18 17 15 14 14 10 9 10 10 9 8 9 8 10 12 15 16 18 19 20 21 20 18 17 19 20 18
3 3 3 2 2 4 3 4 4 5 4 4 5 6 10 12 12 13 14 14 15 14 14 14 12 12 12 12 10 8 8 8 10 10 13 14 14 13 15 16 17 18 18 18 18 17 17 17 17 17 17 17 17 16 15 16 17 17 18 18 16 15 8 6 9 11 10 9 9 9 10 11 15 17 18 18 19 19 21 20 19 20 20 21 18
2 2 2 2 2 3 4 3 3 4 4 4 4 4 6 8 7 9 11 12 12 12 12 11 10 9 9 9 6 6 5 6 6 7 8 9 11 13 14 15 15 15 16 17 17 17 17 17 17 16 16 16 16 15 13 14 15 16 17 16 16 9 7 8 8 8 9 9 10 10 11 12 15 17 19 19 20 20 21 22 22 21 23 21 20
2 2 2 2 2 3 4 3 3 4 3 2 2 3 3 5 5 4 5 6 7 8 7 7 7 6 8 6 6 5 5 5 5 7 6 7 8 11 12 14 14 15 14 15 15 16 16 16 16 16 16 16 15 8 9 10 12 13 14 13 9 8 9 9 9 8 9 9 10 10 12 14 16 17 18 21 21 21 22 21 19 21 24 25 23
3 2 1 2 1 1 2 3 3 2 3 3 2 3 3 3 4 4 3 5 5 5 5 5 5 6 6 6 5 5 5 5 5 6 5 7 7 10 12 12 12 13 14 13 13 14 15 15 15 15 15 15 8 7 7 8 8 11 9 8 7 8 9 10 9 9 9 9 10 12 13 17 18 19 19 20 22 22 22 23 20 20 21 24 27
4 3 2 0 1 2 2 1 2 2 2 2 2 2 3 3 3 3 3 3 4 4 4 5 4 5 5 5 5 5 5 5 6 7 5 5 5 7 10 10 10 9 12 8 9 10 13 12 13 14 9 6 7 7 8 7 7 7 7 7 7 8 9 9 9 9 9 10 10 12 15 19 20 22 22 22 22 22 23 23 24 20 20 22 26
4 2 0 1 1 1 0 2 2 2 2 1 2 2 2 2 3 3 3 3 4 4 4 5 5 6 6 5 5 5 4 4 5 5 5 5 5 5 5 6 6 7 10 7 7 7 7 7 7 8 7 7 7 7 8 8 8 8 8 7 7 7 8 8 8 9 9 10 11 12 14 19 22 23 24 23 24 24 24 24 25 24 22 22 27
1 3 3 2 1 0 1 1 2 1 1 0 0 1 2 3 3 3 3 3 4 3 3 4 4 5 5 6 6 6 6 5 5 5 5 5 6 6 6 6 6 6 6 6 7 7 7 7 7 7 7 7 7 8 8 8 8 9 8 8 8 8 7 7 8 8 9 10 11 13 14 16 23 25 25 26 25 25 25 25 25 26 24 19 24
4 4 2 1 1 1 1 1 1 1 1 1 1 1 2 2 2 3 4 4 4 4 4 4 5 5 6 6 6 6 5 5 5 5 6 6 6 7 7 6 7 7 7 6 7 6 6 7 7 7 7 7 8 8 8 8 8 9 9 9 9 9 8 7 7 8 8 9 11 14 15 16 21 25 26 26 27 26 26 26 27 26 25 24 24
5 5 3 3 2 1 0 1 1 0 0 1 2 2 3 3 3 4 4 5 5 5 4 5 5 5 6 5 5 5 5 5 6 6 6 6 7 7 7 7 7 7 7 6 7 7 7 6 7 8 8 7 8 8 8 8 9 9 10 10 10 9 9 9 8 9 8 9 10 12 14 15 17 19 25 28 28 29 27 27 29 28 27 27 26
7 6 4 3 2 1 0 1 1 0 1 2 3 2 3 3 4 4 4 5 4 4 4 4 4 4 5 5 5 5 5 5 6 7 6 6 6 6 6 7 7 7 8 8 7 8 8 7 7 7 7 8 8 8 8 8 8 8 9 10 10 10 10 10 9 9 9 9 9 11 14 16 18 20 22 25 28 29 28 28 29 31 29 29 27
8 7 5 4 2 1 1 1 1 1 1 2 2 3 3 3 4 4 3 3 3 3 4 3 3 3 4 5 6 5 5 6 6 6 6 6 6 6 6 7 7 7 7 8 8 8 8 8 8 8 8 8 8 9 8 9 9 9 9 10 10 10 10 10 10 9 9 10 10 10 15 15 15 19 21 22 26 29 29 27 29 31 31 32 28
7 7 5 4 2 2 1 1 1 1 1 2 2 2 2 3 3 2 2 3 3 3 3 3 3 4 4 5 5 5 5 5 6 7 6 7 6 7 7 7 7 7 7 7 7 8 8 8 9 9 9 9 8 8 9 9 10 9 9 10 10 10 10 10 10 10 11 10 10 10 13 17 17 17 18 22 24 26 29 30 29 30 31 32 31
8 8 6 4 3 3 2 1 0 1 1 2 2 1 2 2 2 2 3 2 3 2 2 2 3 3 3 3 4 5 5 6 7 7 7 7 6 6 6 7 7 7 8 8 9 8 8 8 10 9 10 9 9 8 8 9 10 9 9 11 11 11 11 10 10 11 11 11 11 11 10 13 17 17 17 20 24 25 26 29 30 30 30 33 32
6 8 7 5 5 4 3 2 1 2 3 2 1 1 1 2 2 2 2 2 2 1 1 2 2 2 2 3 4 5 5 5 6 7 7 6 6 6 6 6 6 7 7 9 10 8 7 8 8 8 9 9 9 9 8 8 9 10 10 10 10 11 11 11 11 11 11 11 11 11 11 12 13 17 19 18 20 24 25 26 28 30 31 32 33
8 6 5 6 4 3 2 2 1 2 2 1 1 2 2 1 1 1 2 1 1 1 1 1 2 2 3 3 3 4 4 4 5 6 6 6 6 5 5 6 6 7 7 7 8 7 7 8 9 8 8 8 9 9 9 10 9 9 10 10 10 11 11 12 12 12 11 12 11 12 12 11 11 12 12 17 18 19 22 23 26 30 31 31 30
8 7 9 9 6 5 3 3 1 1 1 2 3 2 2 1 1 1 1 1 1 1 1 1 2 2 2 2 3 3 4 4 4 5 5 5 6 5 5 5 6 7 7 7 7 7 7 8 8 9 9 8 9 9 10 10 11 11 10 10 10 11 11 12 12 12 13 13 12 13 12 12 12 12 12 12 14 19 21 22 25 27 31 31 32
11 11 8 7 8 6 4 5 2 2 2 2 2 2 2 1 1 2 2 1 1 1 1 2 2 2 2 3 3 3 4 4 4 4 5 5 5 6 5 6 7 7 7 7 7 7 7 7 7 8 9 9 10 10 9 11 11 12 11 11 11 11 11 11 13 13 13 13 13 13 12 13 13 12 13 13 13 15 19 19 22 23 25 28 29
10 11 11 9 8 7 5 5 4 2 2 2 2 2 2 2 2 2 2 2 2 2 2 2 2 2 2 3 3 4 4 4 4 4 4 5 5 5 5 6 6 6 6 7 7 7 7 7 7 7 8 9 10 12 11 11 11 11 11 12 12 12 12 12 13 13 12 14 15 14 14 14 14 16 15 14 14 13 17 21 21 23 24 24 26
10 11 11 11 10 8 7 5 4 1 1 1 2 2 2 2 2 2 2 2 2 2 2 2 3 3 2 3 4 4 4 4 4 4 4 4 4 5 5 5 6 5 6 6 6 6 7 7 9 8 8 9 10 10 12 11 11 12 12 12 13 12 13 13 13 13 13 15 14 14 14 14 14 14 14 14 14 14 14 17 21 23 24 25 26
9 10 9 8 8 7 5 4 3 2 1 1 2 1 2 2 1 2 2 3 3 3 3 3 3 3 3 4 4 4 4 5 5 5 5 5 4 4 4 5 5 5 5 6 6 6 7 7 9 10 8 8 10 11 12 12 13 13 14 15 13 15 13 13 14 14 14 14 15 15 13 15 14 14 15 15 14 15 16 14 12 12 15 25 26
9 9 9 8 8 6 4 3 2 2 1 1 1 1 1 2 2 1 2 3 3 4 4 4 3 3 3 4 4 5 5 5 5 5 5 5 5 5 6 5 5 6 6 7 7 7 9 10 9 10 12 10 9 10 11 12 13 15 16 16 14 15 15 14 15 15 14 14 14 13 14 13 13 15 16 15 15 16 16 15 14 14 14 16 23
9 10 9 8 8 8 7 6 4 3 2 2 2 2 2 1 1 2 3 3 3 3 3 3 2 3 4 4 4 5 5 5 5 6 6 5 5 5 6 6 6 6 7 7 8 10 9 9 10 9 10 11 9 8 10 11 14 14 11 14 15 12 15 15 16 15 14 13 13 14 14 14 14 15 15 14 15 16 16 16 15 15 15 14 15
10 9 11 10 9 7 8 6 4 4 4 4 3 2 2 2 2 3 2 3 4 3 3 2 3 3 4 5 5 5 6 6 6 6 6 5 6 6 6 7 7 7 7 8 9 9 10 9 9 10 6 9 9 8 9 10 9 9 16 17 15 11 13 14 13 13 14 13 13 14 13 14 15 14 13 14 15 16 16 16 16 15 15 15 14
12 11 10 9 8 7 7 6 5 6 5 4 3 3 3 3 3 3 2 3 3 3 3 4 4 5 4 5 5 5 5 6 6 6 5 5 5 5 6 6 6 7 8 8 8 9 8 9 9 9 11 8 9 8 9 6 10 11 12 14 15 17 12 6 9 11 10 10 10 11 11 12 14 13 13 13 14 15 14 15 17 17 16 16 14
10 9 9 10 8 8 8 7 7 7 5 5 5 5 3 2 2 2 4 3 4 4 5 5 5 6 6 4 4 5 6 7 7 7 5 5 6 6 6 6 7 7 8 9 9 9 8 8 8 9 9 13 8 8 6 8 8 10 10 5 11 12 17 9 5 10 9 13 14 14 13 14 15 15 12 13 14 14 16 16 17 17 18 17 15
11 13 12 11 9 11 10 10 9 8 6 5 6 4 3 2 1 2 3 4 3 3 4 4 4 5 7 7 7 5 7 8 8 7 6 6 6 6 7 7 8 8 8 8 8 8 9 8 9 9 9 9 13 9 9 8 10 8 10 11 10 7 10 15 17 19 10 10 12 11 10 10 10 11 12 13 12 14 14 16 17 18 17 17 16
13 13 12 11 10 9 9 8 6 6 6 6 6 4 4 4 2 2 2 2 4 2 3 4 5 5 6 6 7 6 6 7 7 7 6 6 6 6 7 8 9 8 8 8 9 9 9 9 8 9 10 10 11 13 12 8 9 11 12 13 12 13 15 16 14 18 11 10 16 14 17 16 15 14 14 13 12 11 11 13 15 17 18 17 16
13 10 10 9 9 9 9 8 8 6 5 5 6 5 4 4 5 4 3 4 5 5 3 4 5 6 6 7 7 6 6 7 7 6 6 6 6 7 7 8 8 8 8 8 9 10 9 9 8 8 9 10 10 13 14 11 9 11 12 16 18 17 18 15 16 15 21 15 9 14 13 12 11 13 15 15 14 14 13 12 14 15 17 16 17
11 10 9 8 10 9 9 8 6 6 6 5 5 5 5 5 4 4 4 4 5 7 5 5 5 6 7 8 7 7 7 7 7 7 6 6 6 7 7 8 8 9 8 8 9 9 9 9 9 10 10 10 12 13 15 12 10 11 8 12 15 16 18 19 19 16 18 23 20 11 14 20 18 16 17 17 16 16 16 15 14 15 14 15 15
11 11 11 10 8 8 8 7 7 6 5 6 5 5 5 5 4 3 4 4 5 6 5 5 6 6 8 7 7 8 7 7 7 7 7 7 7 8 8 9 9 9 9 9 9 10 11 11 11 10 11 11 11 13 14 14 12 14 11 12 13 14 14 16 18 17 15 19 20 18 17 16 18 16 16 15 15 16 15 15 14 14 14 14 14
10 10 9 8 8 8 9 9 8 6 6 6 5 5 5 4 4 4 5 5 4 5 4 6 6 5 7 8 7 7 7 7 6 6 7 7 8 8 9 9 10 10 10 10 11 11 11 11 12 14 13 15 11 13 15 14 13 14 13 13 13 13 14 15 16 16 17 19 20 22 18 18 19 16 15 15 17 16 17 17 16 16 16 15 14
9 10 8 9 9 10 10 10 9 6 5 6 6 6 5 4 4 5 6 6 5 5 5 6 5 5 7 7 6 7 7 7 6 6 7 7 8 8 9 9 10 10 10 11 11 11 11 12 13 15 15 16 13 14 15 16 15 17 17 15 16 15 15 15 16 15 16 17 17 20 21 17 19 20 15 14 15 18 15 14 15 15 16 17 16
Wind_Direction
356 335 328 327 334 7 22 28 32 38 39 39 41 44 42 43 36 25 360 336 319 313 326 331 322 325 321 317 313 316 314 314 318 324 318 314 310 303 293 291 284 291 295 299 303 314 318 326 334 334 336 341 343 341 336 336 332 329 327 325 324 326 330 329 325 301 264 264 266 262 265 264 259 256 257 250 240 232 212 201 205 206 211 208 195
311 316 319 320 335 9 27 35 37 39 40 41 43 46 48 50 49 47 38 26 19 19 343 329 329 334 333 333 337 333 331 321 330 324 319 314 305 300 297 292 285 281 290 295 301 310 315 323 324 325 331 340 346 340 335 329 329 328 326 319 317 319 323 325 323 315 291 258 253 264 268 265 262 259 261 254 239 230 207 201 203 212 207 205 205
303 314 319 316 340 8 30 37 41 41 42 43 43 44 47 48 51 53 53 50 47 43 35 19 8 2 352 338 337 335 334 329 323 317 317 316 319 323 324 305 291 292 295 298 309 312 316 319 316 319 325 327 324 320 316 318 319 324 319 315 313 314 316 319 318 317 306 286 266 253 254 257 261 266 264 261 247 237 210 199 187 236 211 202 209
317 322 317 331 341 10 35 40 43 45 44 44 44 44 44 45 46 49 51 51 50 49 46 44 43 44 33 22 15 11 1 348 340 329 323 326 320 327 322 328 322 308 292 293 304 308 314 315 318 318 320 321 289 288 280 278 293 303 312 309 309 310 309 312 312 310 302 292 284 270 258 256 248 251 259 260 253 245 211 188 194 212 226 200 205
324 327 334 335 346 14 40 45 47 48 47 46 45 44 43 43 43 45 47 48 49 49 46 45 43 42 41 35 34 34 31 24 14 3 356 351 342 329 319 308 310 321 312 312 310 309 311 312 314 315 313 307 280 265 275 264 271 286 296 299 298 299 300 303 305 306 306 294 282 280 265 256 253 252 250 245 253 253 211 197 202 208 218 207 202
343 339 336 340 346 18 42 49 51 50 50 49 48 47 45 44 43 43 44 44 43 46 45 42 42 39 36 34 32 32 32 29 29 26 21 9 2 356 338 326 325 319 315 325 328 325 317 310 310 312 313 310 306 300 274 270 272 286 292 293 281 278 287 294 299 300 306 301 286 274 272 262 246 244 238 249 256 256 200 207 212 215 218 215 204
344 324 338 348 347 35 43 49 52 51 52 50 49 48 47 46 45 45 46 45 43 42 43 44 45 40 38 33 29 32 32 28 29 30 28 25 21 13 5 355 343 336 328 326 322 322 316 310 312 315 316 316 316 308 299 289 286 299 305 302 289 274 268 281 288 297 301 303 303 288 266 261 254 246 237 249 258 256 214 223 213 216 219 218 206
335 346 352 352 360 41 45 49 50 52 51 51 50 49 48 46 46 45 45 46 45 41 41 41 41 41 38 35 35 35 34 33 31 29 29 26 25 23 19 16 9 357 340 330 326 324 326 332 323 314 315 317 317 314 306 285 283 309 309 299 295 289 273 271 278 284 300 297 299 294 281 266 257 256 248 247 251 256 216 226 222 219 220 220 205
13 1 357 357 5 44 48 50 52 54 53 53 51 50 49 48 47 47 47 45 44 42 40 43 43 42 39 37 35 36 36 35 36 33 30 28 26 24 18 15 13 10 4 355 342 335 332 329 322 312 314 315 316 317 314 302 293 293 290 289 292 292 272 263 267 275 281 293 290 284 278 269 268 262 261 256 256 259 221 225 229 224 224 225 219
11 3 2 356 14 43 49 51 53 53 54 54 53 52 51 51 50 50 48 48 46 44 43 43 44 44 41 38 37 36 37 34 33 33 30 29 28 28 22 14 12 9 8 3 358 352 343 333 327 325 322 319 320 324 320 317 304 304 300 295 296 300 289 257 252 255 272 275 286 286 275 263 263 270 257 252 256 256 231 222 231 227 224 229 223
12 10 6 358 18 45 48 52 54 55 56 56 56 55 54 54 54 53 52 50 48 47 46 46 46 43 41 40 38 38 37 35 32 30 29 26 25 24 20 16 13 13 10 8 4 360 350 345 339 332 326 326 325 325 323 322 317 307 302 293 287 291 291 269 245 261 262 267 265 274 284 255 261 261 253 254 254 256 223 222 232 230 223 226 221
26 18 10 6 2 45 48 52 53 53 54 55 55 55 55 55 55 53 51 50 49 47 46 46 44 42 40 39 39 39 38 37 34 33 30 27 25 22 18 16 15 17 14 12 8 1 357 350 345 345 338 333 330 326 321 320 316 311 304 299 290 287 281 282 272 270 259 259 259 258 267 274 272 261 250 258 256 255 230 215 228 229 228 222 221
41 27 18 359 353 42 49 51 53 55 54 53 54 53 52 52 51 52 51 50 49 48 47 46 45 41 39 38 38 38 37 36 35 34 31 28 26 23 20 18 16 17 17 12 7 5 4 359 357 357 355 350 341 330 323 319 314 308 303 298 290 280 275 271 276 282 273 257 258 256 259 265 267 262 257 260 260 253 252 226 222 227 225 221 214
63 40 22 11 15 20 46 49 50 54 55 54 54 54 54 52 50 49 49 49 49 48 47 47 45 43 40 38 37 36 36 35 34 33 31 28 25 23 21 20 18 18 17 12 7 6 4 2 2 1 356 351 344 337 329 322 315 306 300 300 298 292 285 272 271 275 281 272 260 258 259 259 260 260 255 258 263 257 254 233 219 222 221 218 213
68 43 26 26 22 19 25 43 46 48 52 53 54 53 53 53 52 50 49 48 47 46 45 45 45 43 42 40 39 37 35 34 32 32 29 27 24 23 21 19 20 18 15 11 8 7 4 3 3 1 359 356 350 344 339 331 322 314 304 297 293 289 280 284 286 277 278 277 278 260 257 256 255 256 252 251 260 259 254 244 223 223 218 214 216
47 48 35 32 26 23 16 26 39 40 45 50 51 51 50 50 50 50 48 48 47 46 44 43 43 41 40 39 37 36 35 34 32 31 30 26 24 22 21 20 19 17 14 11 9 8 5 4 3 2 0 359 356 352 349 345 339 329 319 307 298 291 285 273 287 292 281 274 275 270 262 260 250 249 253 255 261 262 256 248 233 223 219 213 212
37 35 50 35 26 26 26 25 34 37 36 37 47 48 49 48 47 47 47 46 44 44 43 43 43 42 40 38 36 34 33 32 30 29 28 25 22 21 20 18 18 16 13 10 8 8 6 5 3 2 1 0 358 354 349 344 342 339 332 322 312 304 298 285 282 279 284 283 284 280 274 268 251 250 253 255 262 263 259 252 239 229 224 213 206
30 35 45 33 31 26 33 28 31 31 31 31 29 44 44 46 46 45 45 44 43 42 41 39 38 39 40 39 36 34 32 32 30 29 28 25 22 18 18 17 17 15 12 9 7 6 5 4 2 1 1 359 358 355 352 348 346 344 341 333 323 314 309 305 289 285 281 276 273 272 278 274 263 257 257 259 261 265 261 254 239 230 230 217 209
39 33 32 37 35 31 35 32 31 28 33 32 30 30 41 39 41 41 42 42 42 40 40 36 33 34 33 34 33 30 29 28 30 28 28 26 23 18 16 15 15 13 10 8 7 5 3 2 0 359 360 358 357 354 351 348 346 344 342 339 330 322 311 300 288 284 278 278 275 271 268 270 263 262 261 262 261 262 261 253 243 232 230 226 212
58 34 44 30 25 50 35 39 33 28 26 38 37 30 42 39 36 37 35 37 36 33 31 28 24 22 24 23 21 19 17 22 20 26 22 24 22 19 17 16 15 11 8 6 4 3 1 0 359 356 357 357 355 351 348 347 345 343 342 336 329 316 306 303 297 290 284 279 273 271 264 254 259 259 261 264 266 265 265 261 245 239 233 228 218
29 51 32 22 45 60 42 51 34 21 22 39 43 39 44 45 35 31 33 31 29 26 21 18 14 10 10 10 7 17 15 13 12 22 14 20 16 15 15 15 15 11 7 5 1 0 359 357 356 355 355 354 351 344 342 345 343 341 338 333 321 313 311 302 297 291 286 283 276 272 261 250 256 256 260 267 269 267 265 265 259 245 239 232 218
82 77 22 14 57 48 50 50 36 18 10 29 38 50 41 47 39 29 29 25 21 20 13 12 8 4 2 0 8 8 8 9 11 12 15 12 13 12 12 11 11 9 5 4 360 357 357 355 353 351 351 351 346 342 339 338 336 338 332 327 326 326 318 311 302 294 290 282 279 274 263 262 262 256 254 264 266 268 265 262 258 251 246 239 230
132 143 92 30 27 60 49 49 29 5 10 31 29 43 50 51 41 38 30 28 19 17 14 8 8 2 357 357 2 4 358 359 7 6 3 360 3 5 7 9 8 4 0 360 356 354 352 351 349 347 345 344 342 341 336 332 329 329 330 332 330 322 316 310 303 299 290 285 283 278 269 271 268 264 258 260 265 267 267 263 252 249 245 243 244
169 178 132 28 11 55 48 53 38 9 24 26 25 43 44 47 45 34 34 30 20 16 11 9 4 4 357 357 1 355 349 354 350 349 346 356 1 355 356 357 359 358 354 352 347 348 345 343 342 341 339 340 339 334 332 327 326 326 326 324 320 318 314 310 304 299 295 290 283 280 277 276 271 268 264 263 264 265 265 263 257 244 242 239 243
181 157 223 176 35 71 118 60 51 26 30 17 24 40 47 54 47 38 38 30 23 17 15 5 7 360 359 357 354 350 344 351 352 351 356 352 352 354 354 355 352 350 348 346 345 340 340 337 337 337 335 333 330 329 328 325 323 323 320 317 315 311 308 306 304 300 297 293 290 287 279 280 275 272 267 265 265 263 263 262 257 252 242 232 242
213 159 161 95 356 333 354 31 62 30 40 298 42 78 60 54 44 37 43 37 30 23 17 11 5 4 357 354 350 352 351 353 353 354 352 350 350 355 352 349 346 344 344 342 341 339 335 334 331 331 327 325 321 320 317 315 315 315 313 312 309 307 303 301 301 299 298 298 295 291 283 281 282 278 271 268 266 265 263 263 255 256 252 229 228
178 169 167 216 222 237 300 78 92 149 200 214 195 110 70 80 75 56 42 32 27 21 14 7 5 358 357 357 355 353 350 349 351 351 355 350 353 354 351 349 347 345 345 341 336 333 330 328 327 324 321 315 313 308 308 307 305 304 305 304 304 302 300 296 293 293 295 296 297 297 290 283 282 281 276 269 267 265 264 263 263 255 252 246 228
155 160 185 201 209 214 237 128 121 156 255 265 64 54 42 40 41 45 46 31 27 19 9 4 353 1 1 356 352 345 347 349 350 354 355 354 358 350 349 349 349 347 343 342 338 335 331 325 320 316 315 312 307 305 303 302 300 299 297 298 298 298 297 295 292 290 292 290 291 291 290 289 284 280 280 276 269 268 266 263 262 258 250 245 239
155 173 187 186 194 229 228 139 122 50 5 360 44 42 34 35 38 38 35 25 28 20 5 355 3 354 358 355 354 350 350 351 351 352 345 358 353 354 350 352 347 347 344 342 343 337 332 327 322 317 314 310 307 304 302 297 294 294 294 293 293 294 293 293 292 293 289 289 287 286 285 284 284 282 279 280 277 269 264 263 263 262 256 250 242
172 165 176 181 203 219 190 66 352 26 13 37 46 40 29 38 35 42 30 32 29 13 3 11 0 0 360 358 352 352 350 348 347 346 348 352 352 351 352 351 346 345 345 339 339 334 330 325 322 319 315 310 307 303 301 295 291 287 285 287 287 288 289 290 291 290 291 288 287 285 281 278 276 279 278 274 277 278 275 268 264 263 261 257 248
163 170 180 185 192 176 161 222 22 18 53 63 56 54 49 46 45 45 49 37 21 15 18 5 4 3 358 348 344 348 345 347 349 346 347 349 350 351 352 346 346 346 342 333 331 328 324 323 322 320 316 312 305 302 300 296 291 285 279 278 281 283 283 284 285 286 286 286 286 287 287 283 278 273 271 272 269 270 273 273 270 266 265 261 254
174 175 177 177 173 187 181 187 186 76 92 72 77 61 54 50 50 50 50 43 29 28 15 12 357 348 342 340 345 345 346 345 346 346 343 344 347 348 345 347 343 339 337 332 326 322 317 313 314 315 311 308 305 301 297 296 292 287 282 276 275 276 278 280 280 281 280 281 281 282 280 283 281 274 270 270 269 265 265 270 270 268 266 264 259
194 165 169 164 179 181 174 181 133 95 76 76 68 87 71 56 45 45 52 47 42 35 16 2 334 325 333 343 344 343 341 343 343 341 338 335 338 340 344 341 337 334 328 324 319 318 317 316 313 312 309 309 305 304 300 292 290 288 284 279 277 274 272 273 274 276 277 278 278 277 276 277 277 278 272 264 264 264 262 261 266 269 267 264 261
163 168 144 174 177 183 188 155 112 71 83 108 81 62 46 40 53 67 59 52 55 21 358 330 318 323 333 331 330 329 328 331 333 333 332 329 329 333 336 334 333 330 325 325 325 323 318 317 316 316 312 307 303 301 301 297 290 288 286 286 279 276 274 270 268 270 272 274 276 273 273 273 273 274 275 273 266 261 259 257 257 262 265 264 260
148 155 175 172 167 177 175 138 106 114 68 54 49 41 35 21 25 51 50 32 17 358 333 308 303 309 316 312 312 315 314 314 320 323 323 322 321 326 331 333 330 326 325 326 321 318 316 317 319 317 312 305 298 295 293 291 293 290 285 283 283 284 278 273 270 265 263 268 267 269 271 270 268 269 269 271 268 259 254 255 252 253 259 260 260
167 166 167 159 163 175 160 140 149 121 75 45 44 29 5 4 8 19 16 24 345 328 311 293 293 292 293 296 295 299 304 306 309 313 312 317 319 322 327 327 329 328 327 324 325 321 320 313 309 310 313 311 310 303 295 288 283 284 283 280 278 276 277 277 275 272 270 266 262 263 265 268 270 267 269 269 267 266 260 253 251 249 248 254 257
169 165 167 165 162 169 158 156 149 133 48 26 32 24 6 9 11 5 353 336 317 300 287 285 280 273 283 284 285 289 292 288 290 291 298 308 312 316 316 319 321 321 316 318 314 315 316 311 307 304 302 302 304 302 301 295 290 284 283 280 277 276 272 272 274 276 275 267 269 265 261 263 267 268 267 262 263 263 258 251 249 247 247 246 249
179 173 170 165 166 166 166 160 155 122 100 33 12 359 355 1 354 348 324 299 273 263 270 270 263 266 269 266 268 275 284 281 279 283 287 291 297 299 304 308 311 311 311 308 306 304 303 306 307 305 303 300 300 300 298 296 293 291 285 280 277 273 275 273 269 270 270 271 269 266 266 266 259 260 263 262 259 256 258 252 244 243 244 242 242
177 175 169 165 149 154 154 160 148 131 91 50 8 360 1 345 343 307 289 273 260 258 254 256 249 257 257 258 260 271 284 281 283 283 288 294 293 295 300 306 306 307 309 308 308 308 307 306 302 302 297 292 294 295 294 293 290 286 285 282 275 270 269 269 269 267 263 264 266 268 267 264 265 261 257 260 260 258 255 256 251 244 239 236 240
173 170 165 161 155 150 141 146 155 143 83 49 20 334 356 322 306 315 269 250 242 255 257 244 251 253 262 266 264 274 284 284 281 285 284 292 301 308 313 316 318 318 318 318 317 319 316 312 308 308 305 299 291 291 296 298 295 292 288 281 273 274 269 266 268 265 266 266 263 264 263 263 262 263 260 255 259 260 257 253 250 246 247 238 230
175 174 166 169 171 164 150 173 174 131 151 171 212 203 219 255 226 222 252 259 266 262 258 265 258 263 270 265 261 274 283 280 283 286 287 291 297 308 317 322 322 320 315 311 311 309 310 311 310 307 303 302 297 292 295 304 306 299 284 280 284 272 269 268 266 266 265 261 261 260 258 259 259 259 261 261 257 255 256 253 249 246 244 245 237
190 175 177 177 170 159 164 164 136 156 177 192 189 181 192 198 224 256 266 277 289 290 292 276 270 271 270 264 264 273 279 279 283 285 292 303 313 319 320 317 320 312 305 301 303 306 307 310 313 308 296 298 296 297 295 307 300 309 319 318 302 291 257 253 254 261 252 254 254 256 260 260 259 261 265 267 262 258 255 254 250 246 243 242 240
171 183 182 165 167 165 172 163 159 169 188 189 181 205 204 204 193 244 245 293 259 267 272 274 283 277 257 247 253 262 274 284 288 288 289 297 299 301 302 307 307 310 310 308 307 307 308 308 309 305 308 293 285 287 283 282 295 306 298 297 302 327 314 244 240 240 250 256 261 262 263 265 265 265 269 270 269 266 262 257 254 250 246 241 239
176 179 181 180 171 171 176 173 182 179 182 190 195 207 203 197 219 267 287 259 283 304 296 294 292 289 276 261 280 295 303 297 295 294 295 300 306 305 307 309 308 309 304 304 302 300 304 306 306 302 301 303 297 294 292 296 295 311 307 275 301 310 301 301 339 288 260 260 261 264 265 266 268 269 266 265 268 270 270 268 261 252 248 245 239
186 185 182 182 173 179 179 180 179 182 179 182 192 181 181 219 259 299 276 293 272 278 300 288 273 281 292 298 292 294 287 286 288 286 293 302 306 303 301 302 302 303 302 297 296 295 298 296 296 294 292 293 299 294 290 280 277 262 272 299 300 266 253 290 323 294 282 275 262 258 264 274 281 286 283 280 279 283 285 277 267 260 254 245 241
194 193 184 183 172 176 175 177 166 165 176 184 178 170 190 184 187 221 274 276 287 283 266 281 299 290 279 283 282 270 269 270 272 282 293 304 301 295 293 296 297 296 296 293 291 293 291 292 291 289 286 280 283 294 288 276 275 272 257 255 254 277 300 300 310 295 308 252 275 267 266 266 272 274 274 277 279 278 272 276 282 276 260 253 245
199 183 185 176 178 170 171 169 169 169 167 175 168 175 180 186 198 210 218 236 261 269 238 245 262 274 275 275 279 283 276 277 281 284 292 284 281 278 277 279 280 281 281 281 281 282 286 286 288 281 280 282 280 281 282 287 283 259 256 256 258 262 268 283 284 297 295 296 252 274 268 262 264 274 277 274 277 281 281 280 280 282 285 270 250
183 184 175 173 174 173 163 166 161 160 163 160 172 178 181 187 190 205 215 225 233 261 279 280 272 276 281 284 293 292 290 284 286 289 285 284 282 280 277 279 278 278 277 273 275 278 281 279 277 278 277 272 272 273 280 280 277 281 259 261 262 261 262 266 269 276 285 292 295 264 266 276 274 268 267 269 270 271 274 275 270 273 273 273 276
189 183 181 176 171 158 154 149 164 164 164 173 173 184 191 184 188 196 228 233 242 257 268 273 282 278 278 282 280 282 284 279 277 284 282 281 281 281 281 279 279 279 278 277 275 277 276 278 277 277 275 275 266 267 271 273 272 274 281 272 272 269 270 264 267 266 266 282 280 283 281 274 274 265 265 264 267 266 266 269 271 272 269 271 269
185 180 178 160 153 146 151 158 172 177 170 173 179 179 186 186 187 204 222 242 239 256 257 265 263 267 273 276 280 283 285 284 281 277 281 279 276 277 276 276 277 278 278 278 279 277 276 274 274 278 276 272 266 263 263 267 270 272 270 278 278 275 269 268 260 260 264 258 271 282 280 281 278 273 268 269 270 269 272 275 276 270 266 262 259
182 176 168 163 151 156 158 166 177 170 170 171 170 181 179 180 192 203 217 240 249 256 271 268 268 275 275 277 280 284 282 283 288 284 279 280 277 274 275 276 276 277 277 278 276 276 275 277 278 277 274 270 267 265 264 265 268 269 271 271 270 269 265 264 263 261 259 265 270 272 280 276 275 280 265 260 262 266 267 273 275 275 272 267 263